This is the latest recevied weather packets stored in our database for station/object WA7CUG. If no packets are shown the sender has not sent any weather packets the latest 10 day(s).
| Time | Temp. | Humidity | Pressure | Rain* | Wind** | Luminosity | Snow |
|---|---|---|---|---|---|---|---|
| 1777739056 | 15.56° C | 61% | 1018 hPa | 0 mm | - | 217 W/m² | - |
| 1777738753 | 15.56° C | 57% | 1018 hPa | 0 mm | - | 214 W/m² | - |
| 1777738449 | 15.56° C | 64% | 1018 hPa | 0 mm | - | 217 W/m² | - |
| 1777738147 | 15° C | 64% | 1018.1 hPa | 0 mm | - | 219 W/m² | - |
| 1777737845 | 15° C | 65% | 1018.2 hPa | 0 mm | - | 190 W/m² | - |
| 1777737544 | 14.44° C | 66% | 1018 hPa | 0 mm | - | 171 W/m² | - |
| 1777737241 | 15° C | 63% | 1018.4 hPa | 0 mm | - | 141 W/m² | - |
| 1777736937 | 15° C | 62% | 1018.1 hPa | 0 mm | - | 108 W/m² | - |
| 1777735717 | 13.89° C | 65% | 1018.1 hPa | 0 mm | - | 164 W/m² | - |
| 1777735415 | 13.89° C | 67% | 1018.1 hPa | 0 mm | - | 181 W/m² | - |
| 1777735112 | 13.33° C | 72% | 1018.2 hPa | 0 mm | - | 179 W/m² | - |
| 1777734809 | 13.33° C | 66% | 1018.2 hPa | 0 mm | - | 140 W/m² | - |
| 1777734506 | 13.33° C | 69% | 1018.3 hPa | 0 mm | - | 126 W/m² | - |
| 1777734202 | 13.33° C | 70% | 1018.4 hPa | 0 mm | - | 123 W/m² | - |
| 1777733899 | 12.78° C | 71% | 1018.4 hPa | 0 mm | - | 124 W/m² | - |
| 1777733596 | 12.22° C | 73% | 1018.4 hPa | 0 mm | - | 112 W/m² | - |
| 1777733292 | 11.67° C | 76% | 1018.2 hPa | 0 mm | - | 104 W/m² | - |
| 1777732989 | 12.22° C | 78% | 1018.2 hPa | 0 mm | - | 105 W/m² | - |
| 1777732685 | 11.67° C | 75% | 1018.2 hPa | 0 mm | - | 104 W/m² | - |
| 1777732382 | 11.67° C | 79% | 1018.4 hPa | 0 mm | - | 102 W/m² | - |
| 1777732080 | 11.11° C | 77% | 1018 hPa | 0 mm | - | 97 W/m² | - |
| 1777731776 | 11.11° C | 77% | 1018.3 hPa | 0 mm | - | 91 W/m² | - |
| 1777731473 | 10.56° C | 77% | 1018.1 hPa | 0 mm | - | 85 W/m² | - |
| 1777731172 | 10.56° C | 78% | 1018.1 hPa | 0 mm | - | 78 W/m² | - |
| 1777730869 | 11.67° C | 78% | 1018.1 hPa | 0 mm | - | 69 W/m² | - |
* Rain latest hour (hover to see other rain measurements)
** Current wind speed in m/s (hover to see current wind gust speed)